Temperature
17 17 17 16 16 16 16 16 16 16 16 16 17 16 17 17 17 17 17 17 17 17 17 17 17 18 18 18 18 18 18 18 17 17 17 17 17 17 17 17 17 17 16
17 17 16 16 16 16 16 16 16 16 16 16 16 16 16 16 17 17 17 17 17 17 17 17 17 17 18 18 17 17 18 18 18 17 17 17 17 17 17 17 17 17 17
16 16 16 15 15 15 15 15 15 15 16 16 16 16 16 16 16 16 16 16 16 17 17 17 17 17 17 17 17 17 17 17 18 17 17 17 17 17 17 17 17 17 17
16 15 15 15 15 15 15 15 15 15 15 15 15 15 16 16 16 16 16 16 16 16 16 16 16 16 17 17 17 17 17 17 17 17 17 17 17 17 17 17 17 17 17
15 15 15 14 14 14 14 14 14 14 15 15 15 15 15 16 16 16 16 16 16 16 16 16 16 16 16 16 17 17 17 17 17 17 17 17 17 17 17 17 17 17 17
15 15 14 14 14 14 14 14 14 14 14 14 15 15 15 15 16 16 16 16 16 16 16 16 16 16 16 16 16 16 16 17 17 17 17 17 17 17 17 17 17 17 17
15 14 14 14 13 13 13 13 13 13 14 14 14 15 15 15 15 16 16 16 16 16 16 16 16 16 16 16 16 16 16 16 16 17 17 17 17 17 17 17 17 17 17
14 14 14 13 13 13 13 13 13 13 13 13 13 14 14 15 15 15 15 15 15 15 15 16 16 16 16 16 16 16 16 16 16 16 16 17 17 17 17 17 17 17 17
14 14 13 13 13 13 13 13 13 13 13 13 13 13 13 13 14 15 15 15 15 15 15 15 15 15 15 15 15 15 15 16 16 16 16 16 16 16 17 17 17 17 17
14 13 13 13 13 13 13 12 12 12 12 12 12 12 12 12 13 13 15 15 15 15 15 15 15 15 15 15 15 15 15 15 16 16 16 16 16 16 16 16 16 17 17
14 13 13 13 13 13 12 12 12 12 12 12 12 12 12 12 12 12 13 14 14 14 14 14 15 15 15 15 15 15 15 15 15 15 15 16 16 16 16 16 16 16 16
14 13 13 13 12 12 12 12 12 12 12 11 11 11 11 12 12 11 11 12 13 14 14 14 14 14 14 14 15 15 15 15 15 15 15 15 16 16 16 16 16 16 16
13 13 13 13 12 12 12 12 12 12 11 11 11 11 11 11 11 11 11 11 12 12 13 13 14 14 14 14 14 14 14 14 14 15 15 15 15 15 16 16 16 16 16
14 13 13 13 12 12 12 12 12 12 11 11 11 11 11 11 11 11 11 11 11 11 12 12 13 13 13 13 13 13 14 14 14 14 14 15 15 15 15 15 15 16 16
14 13 13 13 12 12 12 12 12 12 11 11 11 11 11 11 11 10 10 10 10 10 11 12 12 12 12 13 13 13 13 13 13 14 14 14 14 15 15 15 15 15 15
14 13 13 13 12 12 12 12 12 11 11 11 11 11 11 11 10 10 10 10 10 10 10 11 11 12 12 12 12 12 13 13 13 13 13 14 14 14 15 15 15 15 15
14 14 13 13 12 12 12 12 12 11 11 11 11 11 11 11 10 10 10 10 10 10 10 10 11 11 11 12 12 12 12 12 12 13 13 13 13 14 14 14 15 15 15
14 14 13 13 13 12 12 12 11 11 11 11 11 11 11 10 10 10 10 10 10 10 10 10 10 11 11 11 11 12 12 12 12 12 13 13 13 13 14 14 14 14 15
14 14 13 13 13 12 12 12 11 11 11 11 11 11 11 10 10 10 10 10 10 10 10 10 10 10 10 11 11 11 11 11 12 12 12 13 13 13 13 13 14 14 14
15 14 14 13 13 13 12 12 12 11 11 11 11 10 10 10 10 10 10 10 10 10 9 9 9 10 10 10 10 10 11 11 11 12 12 12 12 13 13 13 13 14 14
15 15 14 14 13 13 12 12 12 11 11 11 11 10 10 10 10 10 10 10 9 9 9 9 9 9 10 10 10 10 10 10 11 11 11 12 12 12 12 13 13 13 13
15 15 15 14 14 13 13 12 12 11 11 11 11 10 10 10 10 10 10 9 9 9 9 9 9 9 9 10 10 9 9 10 10 11 11 11 12 12 12 12 13 13 13
16 15 15 15 14 14 13 12 12 11 11 11 11 11 10 10 10 10 10 9 9 9 9 9 9 9 9 9 9 9 9 9 9 10 10 11 11 12 12 12 12 13 13
16 16 15 15 15 14 13 13 12 12 11 11 11 11 10 10 10 10 10 9 9 9 9 9 9 9 9 9 9 9 9 9 9 10 9 10 11 11 12 12 12 12 13
16 15 15 15 15 15 14 13 12 12 12 12 11 11 11 10 10 10 9 9 9 9 9 9 9 9 9 9 8 8 8 8 8 9 10 9 10 11 11 12 12 12 12
16 15 15 15 15 14 14 13 13 12 12 12 12 11 11 10 10 10 9 9 9 9 9 9 9 9 8 8 8 8 8 8 8 8 9 9 10 10 10 11 12 12 12
Wind_Speed
4 5 4 4 3 2 1 1 1 1 1 2 3 3 3 5 7 7 8 11 15 20 21 21 21 21 21 21 20 20 20 19 19 19 19 18 18 17 17 16 16 15 15
6 4 4 5 4 3 2 1 1 1 1 2 2 3 3 4 6 7 8 11 15 19 22 21 21 22 22 22 22 22 21 21 20 20 20 20 20 19 18 18 17 16 16
8 6 4 4 6 6 5 5 5 4 3 3 3 3 3 3 4 6 8 9 12 17 21 23 23 23 23 23 23 23 23 22 22 22 22 21 21 21 20 20 19 18 18
10 8 4 4 7 8 6 3 4 4 4 4 3 4 3 4 5 6 7 9 11 12 17 22 24 24 23 24 24 24 24 24 24 24 23 23 23 22 22 21 21 20 20
10 8 5 5 8 6 4 4 4 3 3 4 4 3 3 4 4 6 5 8 10 12 14 17 22 23 23 23 23 24 25 25 25 25 25 24 24 24 24 23 22 22 22
9 8 6 6 7 4 5 4 4 4 3 3 4 5 4 4 4 4 4 5 7 10 13 14 16 20 24 24 23 24 25 25 26 26 26 25 25 25 25 25 24 24 23
8 8 5 5 5 5 4 5 3 4 4 4 4 5 5 4 4 3 2 1 2 5 7 10 12 13 15 21 23 23 24 25 26 27 27 26 26 26 26 26 26 25 25
7 7 5 3 4 4 6 6 5 3 4 4 3 3 5 6 5 5 4 3 4 3 2 4 7 10 12 12 15 21 23 25 26 26 27 27 28 28 28 28 28 27 27
6 6 6 4 3 4 3 3 4 4 3 3 3 3 2 3 4 4 5 5 5 4 3 3 3 6 8 10 12 16 20 22 25 26 26 27 28 29 29 29 29 29 28
5 7 7 5 4 3 3 2 3 2 2 2 3 2 1 2 1 4 5 5 6 5 5 4 3 4 5 7 9 12 14 17 20 23 25 27 28 30 30 31 30 30 30
2 5 7 5 3 2 3 2 2 2 1 1 1 1 2 1 1 1 4 6 6 5 5 4 3 4 5 6 8 10 13 14 16 19 21 23 26 28 30 32 32 31 31
0 3 6 5 4 3 3 2 1 0 0 1 1 1 1 0 1 0 2 4 5 5 5 4 3 4 6 6 7 8 10 12 13 15 18 20 22 25 27 30 32 33 32
1 3 4 4 3 4 4 2 2 2 2 2 2 2 2 3 3 2 2 3 3 4 4 4 3 5 7 7 8 9 9 9 10 12 14 17 19 21 24 27 30 32 33
3 4 4 5 5 5 4 3 2 3 3 3 4 3 3 3 3 3 3 2 3 4 3 5 4 4 7 8 9 9 8 8 9 10 12 14 16 18 20 23 26 29 31
4 5 5 5 4 4 4 4 4 4 4 4 5 5 4 4 3 3 3 3 3 3 4 4 4 4 7 9 10 8 9 10 11 11 12 13 15 17 19 21 23 26 29
5 5 5 5 5 5 5 5 4 5 5 5 4 5 5 4 4 4 3 3 4 4 4 4 4 5 5 8 10 10 11 13 14 14 15 15 16 18 19 20 22 24 26
6 6 6 6 5 6 5 5 6 6 6 6 6 6 7 6 4 4 4 4 4 4 5 5 4 4 5 6 8 10 11 11 13 16 17 18 18 18 20 21 22 24 25
7 7 7 6 6 6 6 6 7 7 7 7 7 6 7 6 6 5 5 5 5 5 5 7 4 4 5 6 7 7 7 10 12 16 18 19 19 19 20 21 22 23 24
7 7 7 7 8 7 7 7 8 8 8 8 8 8 8 7 7 6 6 6 5 6 5 5 6 4 4 4 5 6 6 5 9 12 15 17 18 19 19 20 21 22 23
8 8 8 8 8 8 8 8 8 8 8 8 8 8 8 8 8 8 7 7 7 6 5 5 5 5 4 5 3 4 5 4 5 7 9 11 13 15 17 18 19 20 21
9 9 8 8 8 7 8 8 8 8 8 7 7 8 8 10 11 9 7 7 7 6 5 5 5 4 5 4 4 3 4 5 5 3 4 4 4 5 8 13 16 18 20
9 8 9 9 9 8 10 12 9 7 7 8 8 8 8 10 11 13 14 13 11 9 8 6 6 7 8 6 5 4 4 3 4 3 3 5 4 6 5 8 14 17 19
9 9 9 9 9 10 14 14 14 9 8 9 9 8 8 9 10 8 10 11 12 14 14 10 9 10 8 8 6 6 6 6 6 5 3 6 5 6 6 10 15 17 18
9 9 10 10 9 11 15 15 15 10 9 10 10 10 10 10 10 10 9 9 9 10 11 10 10 11 11 9 8 8 7 6 6 5 4 5 5 6 6 6 13 16 17
9 8 7 10 10 11 15 16 15 7 8 10 10 10 11 11 14 15 10 10 10 10 12 14 14 14 15 15 10 5 5 5 6 5 4 4 5 5 5 6 8 13 15
10 9 9 9 10 11 14 16 15 7 8 9 8 9 13 14 15 14 10 9 10 10 8 8 9 10 10 11 13 10 8 7 6 5 5 5 5 3 4 3 3 4 7
Wind_Direction
55 33 24 20 14 23 53 45 21 348 316 295 283 263 237 230 235 232 234 231 214 208 205 201 198 197 196 195 196 195 193 192 189 185 183 181 179 177 176 174 172 169 167
63 43 27 23 18 12 15 53 57 53 13 345 316 307 280 251 247 244 238 234 222 214 210 208 206 204 203 202 202 201 198 197 194 191 189 187 185 184 183 182 179 177 176
66 57 39 24 14 22 38 47 45 45 34 16 344 320 305 284 263 254 248 238 229 223 217 215 213 210 209 209 208 206 204 201 199 197 195 193 191 190 189 187 186 184 184
73 65 49 24 24 38 43 51 46 41 22 5 338 319 312 297 277 265 253 241 230 228 226 224 222 217 216 215 213 212 209 207 204 201 199 198 197 195 194 193 192 191 190
80 75 58 36 39 40 33 35 41 44 19 352 324 317 317 303 286 279 257 242 233 229 226 229 228 225 223 223 221 219 215 212 209 206 204 203 202 200 199 198 197 196 196
90 83 67 48 45 41 28 27 28 24 17 347 336 337 314 306 300 284 265 257 241 233 229 229 229 230 228 227 226 225 222 218 215 212 210 208 206 205 203 202 201 201 200
104 93 81 58 50 49 35 28 28 21 6 359 11 343 333 338 345 343 329 308 288 259 234 227 224 227 232 230 229 228 229 226 222 217 214 212 211 208 206 205 205 205 204
128 119 109 90 66 55 41 39 43 34 3 18 35 20 351 343 343 359 4 17 354 336 292 246 222 219 222 224 230 233 233 231 228 223 219 216 214 212 209 208 208 207 207
149 140 134 121 93 81 63 53 61 64 21 356 36 79 54 319 315 328 356 8 354 351 332 322 259 230 225 227 234 238 237 236 234 230 225 222 218 215 212 211 210 210 210
173 166 155 142 124 107 93 74 84 79 70 11 356 33 156 201 290 321 326 347 352 352 341 337 329 286 247 236 238 238 239 240 238 236 233 229 225 220 216 214 214 213 213
212 183 166 153 140 129 133 110 78 67 94 114 334 337 352 9 74 132 310 328 336 333 332 321 316 314 291 261 248 242 243 245 243 240 237 234 231 226 222 219 218 217 216
296 177 165 159 160 161 169 173 161 149 221 234 237 219 182 258 293 245 271 303 312 308 316 321 321 319 313 291 264 250 248 248 250 246 241 239 237 233 229 226 224 222 220
182 184 165 169 178 191 197 191 200 240 245 248 251 239 221 220 213 201 224 276 295 299 313 317 311 317 322 311 287 267 256 251 252 254 249 244 242 240 236 231 229 226 224
197 191 177 184 196 203 206 196 211 234 226 239 256 248 243 247 223 207 208 236 304 308 309 296 307 309 323 315 299 286 273 264 262 262 258 252 248 245 242 238 234 229 226
189 178 181 189 203 211 217 214 224 240 243 246 251 251 245 251 242 230 209 191 205 280 292 286 298 309 316 312 307 295 284 278 272 268 265 260 256 253 248 244 240 235 230
192 188 196 203 215 225 228 222 231 240 242 250 245 249 252 251 254 249 236 218 195 208 257 269 269 283 303 309 306 295 282 279 273 269 266 264 261 257 253 249 245 240 234
205 204 209 215 223 232 234 228 233 237 238 249 252 245 250 250 249 252 248 240 229 206 250 273 262 281 293 296 302 297 290 279 273 270 267 265 262 259 253 249 247 243 238
212 210 211 216 226 230 230 228 236 237 232 239 245 244 251 252 248 247 244 244 244 230 232 269 280 283 283 288 290 293 292 286 274 273 268 266 262 258 255 249 246 245 240
211 213 211 218 226 229 230 230 229 234 233 233 235 235 242 243 250 248 243 244 246 253 231 245 269 268 275 285 300 298 294 290 288 280 273 267 263 259 254 250 247 245 240
208 213 217 221 226 229 231 234 233 235 237 237 234 232 234 233 239 244 247 243 242 247 246 247 261 270 272 281 289 295 306 305 299 294 285 279 271 264 256 251 248 243 240
214 214 218 225 227 228 233 233 233 235 234 237 239 238 239 240 240 239 242 237 234 235 239 242 255 267 271 279 275 275 288 299 297 282 303 299 289 273 263 254 247 243 238
219 216 218 223 228 234 236 230 219 224 226 229 239 244 249 253 255 256 256 251 232 228 231 235 243 246 256 253 253 258 267 295 299 293 319 298 290 279 265 254 248 243 239
218 221 225 224 229 236 239 238 231 222 226 231 235 240 252 254 251 251 262 268 259 246 232 225 233 242 246 242 241 255 250 244 249 261 288 284 282 276 267 262 255 248 241
216 222 226 226 230 238 237 238 239 231 230 235 234 234 239 251 255 247 251 258 257 255 245 236 231 239 240 238 230 237 246 254 259 258 233 263 276 271 271 259 257 251 244
220 221 222 225 231 241 240 240 238 229 234 241 240 237 234 243 252 251 248 251 259 263 258 244 235 237 240 241 234 232 243 248 268 268 223 229 262 269 268 261 251 246 242
224 225 231 229 233 243 245 241 234 223 235 246 248 243 239 241 249 252 237 235 247 256 258 264 253 252 249 250 244 227 227 236 246 261 235 215 245 248 275 265 249 240 243
Height
1555 1554 1554 1553 1553 1553 1553 1553 1553 1554 1554 1555 1555 1556 1557 1557 1558 1559 1560 1562 1563 1564 1566 1568 1570 1571 1573 1575 1577 1578 1580 1582 1583 1585 1587 1588 1590 1591 1593 1595 1596 1598 1599
1553 1552 1552 1552 1552 1552 1552 1552 1552 1552 1552 1552 1553 1554 1554 1555 1555 1556 1557 1559 1560 1561 1563 1565 1567 1569 1571 1572 1574 1576 1578 1579 1581 1583 1585 1587 1589 1590 1592 1594 1595 1597 1598
1552 1551 1550 1550 1550 1550 1551 1550 1550 1550 1550 1551 1551 1551 1551 1552 1552 1553 1554 1555 1556 1558 1559 1561 1563 1565 1567 1569 1571 1573 1575 1577 1579 1581 1583 1585 1587 1589 1591 1592 1594 1596 1597
1551 1550 1550 1549 1549 1549 1549 1549 1549 1549 1549 1549 1549 1549 1549 1549 1549 1549 1550 1551 1553 1554 1556 1557 1559 1561 1563 1566 1568 1570 1572 1574 1576 1578 1580 1582 1584 1586 1588 1590 1592 1594 1596
1550 1549 1548 1548 1548 1548 1548 1548 1547 1547 1547 1547 1546 1546 1546 1546 1546 1546 1547 1548 1549 1551 1552 1553 1555 1557 1559 1561 1563 1566 1568 1570 1573 1575 1577 1579 1581 1584 1586 1588 1590 1592 1594
1549 1548 1548 1547 1547 1547 1546 1546 1546 1546 1545 1545 1545 1544 1544 1544 1544 1544 1544 1545 1546 1547 1548 1550 1551 1553 1554 1556 1558 1561 1564 1566 1568 1571 1573 1575 1578 1580 1583 1585 1587 1589 1591
1549 1548 1547 1546 1546 1545 1545 1545 1545 1545 1544 1543 1543 1543 1543 1543 1543 1542 1542 1543 1544 1544 1545 1546 1547 1548 1550 1552 1554 1556 1558 1560 1563 1566 1568 1571 1574 1576 1579 1581 1584 1586 1588
1548 1547 1547 1545 1545 1544 1544 1544 1544 1544 1544 1543 1542 1542 1541 1542 1541 1541 1541 1541 1542 1542 1542 1543 1544 1545 1546 1547 1549 1551 1553 1555 1557 1560 1563 1566 1569 1571 1574 1577 1579 1582 1585
1548 1547 1546 1545 1544 1544 1543 1543 1543 1543 1543 1543 1542 1542 1542 1541 1540 1541 1540 1540 1540 1540 1540 1540 1541 1542 1542 1544 1545 1546 1548 1549 1551 1554 1557 1559 1563 1566 1569 1572 1575 1577 1580
1547 1546 1546 1545 1544 1544 1543 1543 1542 1542 1541 1541 1541 1542 1542 1541 1541 1539 1539 1538 1538 1538 1538 1538 1538 1539 1539 1540 1540 1541 1543 1544 1546 1548 1550 1553 1556 1559 1562 1566 1569 1572 1575
1545 1545 1545 1544 1544 1543 1542 1542 1541 1541 1540 1540 1540 1540 1540 1540 1540 1539 1537 1536 1536 1536 1536 1536 1536 1536 1536 1536 1537 1537 1538 1539 1540 1542 1544 1546 1549 1552 1555 1558 1562 1565 1568
1543 1543 1543 1543 1543 1542 1541 1540 1540 1539 1539 1538 1538 1538 1538 1538 1537 1537 1536 1534 1533 1533 1534 1534 1534 1533 1533 1533 1533 1533 1534 1534 1535 1536 1538 1540 1542 1545 1548 1551 1554 1557 1561
1541 1541 1541 1541 1541 1540 1540 1539 1538 1538 1537 1537 1536 1536 1536 1536 1535 1535 1534 1532 1531 1530 1530 1530 1530 1530 1530 1529 1529 1529 1529 1529 1530 1531 1532 1534 1536 1538 1540 1543 1546 1549 1553
1539 1539 1539 1539 1539 1538 1538 1537 1536 1536 1535 1534 1534 1534 1533 1533 1533 1532 1532 1530 1528 1527 1526 1526 1526 1527 1526 1525 1525 1525 1525 1525 1525 1526 1527 1528 1529 1531 1533 1536 1538 1541 1545
1537 1537 1537 1536 1536 1535 1535 1534 1534 1533 1532 1532 1531 1531 1530 1530 1530 1529 1529 1528 1527 1524 1522 1522 1522 1522 1522 1522 1521 1521 1520 1521 1521 1521 1521 1522 1523 1524 1526 1528 1530 1533 1536
1534 1534 1534 1534 1533 1533 1532 1531 1531 1530 1529 1529 1528 1527 1527 1526 1526 1525 1525 1525 1524 1522 1519 1518 1518 1518 1518 1517 1517 1516 1516 1516 1516 1516 1516 1516 1517 1518 1519 1520 1522 1525 1527
1531 1531 1531 1531 1530 1529 1529 1528 1527 1527 1526 1525 1524 1524 1523 1522 1521 1521 1521 1520 1520 1519 1516 1514 1514 1514 1513 1513 1512 1512 1512 1511 1511 1511 1511 1511 1511 1511 1512 1513 1514 1516 1519
1528 1528 1527 1527 1526 1526 1525 1524 1523 1523 1522 1521 1520 1519 1519 1518 1517 1517 1516 1515 1515 1514 1512 1509 1509 1509 1508 1508 1507 1507 1506 1506 1505 1505 1505 1505 1505 1505 1505 1506 1507 1508 1510
1525 1524 1524 1523 1522 1521 1521 1520 1519 1518 1517 1516 1516 1515 1514 1513 1512 1512 1511 1510 1509 1509 1508 1506 1504 1504 1503 1503 1502 1501 1501 1500 1500 1499 1499 1499 1499 1498 1498 1499 1499 1500 1502
1520 1520 1519 1519 1518 1517 1516 1515 1514 1513 1512 1512 1511 1510 1509 1508 1507 1506 1505 1504 1504 1503 1502 1501 1499 1499 1498 1498 1497 1496 1495 1494 1494 1494 1493 1493 1492 1492 1492 1492 1492 1493 1494
1516 1516 1515 1514 1513 1512 1511 1510 1509 1508 1507 1507 1506 1505 1504 1503 1501 1500 1499 1498 1498 1497 1496 1496 1494 1494 1493 1492 1492 1491 1490 1489 1488 1488 1487 1487 1486 1486 1486 1486 1486 1487 1488
1512 1511 1510 1509 1508 1507 1506 1505 1504 1503 1502 1501 1500 1499 1498 1497 1495 1494 1493 1492 1492 1491 1490 1490 1489 1488 1487 1487 1487 1486 1485 1483 1482 1484 1482 1481 1481 1480 1480 1480 1480 1480 1481
1507 1506 1505 1504 1503 1502 1501 1500 1498 1497 1496 1495 1494 1493 1492 1490 1489 1488 1487 1486 1486 1485 1485 1484 1483 1482 1481 1482 1481 1480 1479 1478 1477 1477 1476 1474 1475 1474 1474 1474 1474 1474 1475
1501 1500 1500 1499 1497 1496 1495 1494 1493 1491 1490 1489 1487 1486 1485 1484 1483 1482 1481 1480 1479 1479 1479 1478 1477 1476 1475 1475 1475 1474 1473 1471 1470 1471 1471 1468 1468 1467 1468 1468 1468 1468 1468
1495 1495 1494 1493 1491 1490 1489 1488 1486 1485 1483 1482 1481 1480 1479 1477 1477 1476 1475 1473 1472 1472 1472 1471 1470 1469 1468 1468 1468 1468 1466 1465 1463 1463 1465 1463 1461 1461 1461 1460 1461 1461 1462
1489 1488 1487 1486 1485 1484 1483 1481 1480 1478 1477 1475 1474 1473 1472 1471 1470 1469 1468 1467 1465 1465 1465 1464 1463 1462 1461 1461 1461 1461 1460 1459 1457 1456 1457 1458 1456 1456 1455 1454 1455 1455 1455